COSMOS 1375 DEB

Satellite information

Favourite Embed

Satellite Type and Status

DEBRISIN ORBIT

Key statistics

Satellite COSMOS 1375 DEB at a glance.

Uptime

15847

Days in orbit

Revolutions

≈ 14.0

Per day

Orbit

LEO

Low Earth Orbit

Inclination

65.8

Latest

Satellite identification and parameters

Extended collection of information and parameters for COSMOS 1375 DEB.

Object identification

Identified? True

Debris? True

Object name: COSMOS 1375 DEB

International designator: 1982-055AW

Object number (NORAD): 17804

Object ID (CCSDS): 17804

Country: COMMONWEALTH OF INDEPENDENT STATES (CIS)

Current information (Y/N): Y

RCS size: SMALL

Orbital parameters

Period: 102.619 minutes

Inclination: 65.8158 deg

SMA: 7260.724 km

Apoapsis: 898.547 km

Periapsis: 866.632 km

RAAN: 245.2013 deg

Eccentricy: 0.00219775

Argument of periapsis: 301.3486 deg

Mean anomaly: 135.9903 deg

Mean motion: 14.03242862 rev/day

Mean motion (dot): 0.0000255 rev/day2

B* drag term: 0.0016845047 1/REarth

Two-line elements (TLE)

Creation date: Oct. 25, 2025, 3:11 a.m.

Reference frame: TEME

Reference center: EARTH

Epoch: Oct. 24, 2025, 11:43 p.m. UTC

TLE line 0: 0 COSMOS 1375 DEB

TLE line 1: 1 17804U 82055AW 25297.98885420 .00002550 00000-0 16845-2 0 9997

TLE line 2: 2 17804 65.8158 245.2013 0021978 301.3486 135.9903 14.03242862 24439

Live tracking on map

Real-time ground track for satellite COSMOS 1375 DEB.

In-orbit conjunctions

A list of the most updated potential collisions computed for object COSMOS 1375 DEB.

Target Orbit TCA Probability of collision Miss distance Type
CZ-6A DEB SSO 2025-05-10 10:41:00 0.0001188974 97.0 (m) DEBRIS
CZ-6A DEB SSO 2024-11-08 17:09:41 0.0009542576 480.0 (m) DEBRIS

Associated space launch

ASAT target satellite

COSMOS 1375 DEB was lifted into orbit during the mission ‘Kosmos-3M | DS-P1-M 16’, on board a Kosmos-3M space rocket.

The launch took place on June 6, 1982, 5:10 p.m. from 132/2.

For more information about the launch, click the button.

Launch to space Kosmos-3M | DS-P1-M 16
Kosmos-3M | DS-P1-M 16

Agency: N/A

Status: Launch Successful

Launch date: June 6, 1982, 5:10 p.m. UTC

Rocket: Kosmos-3M

Launch pad: 132/2

Location: Plesetsk Cosmodrome, Russian Federation

...

Latest news about this satellite

There are no fresh news available about this satellite. Check back as we update our databases every day.


Newsletter sign-up

Weekly statistics, charts and insights to help you stay on top of the space industry.